Probability
0 0 0 0 0 0 0 0 0 0 0 0 0 0 1 1 1 2 3 2 0 0 1 2 2 2 1 1 2 2 1 0 0 0 0 0 0 0
0 0 0 0 0 0 0 0 0 0 0 0 0 0 0 1 1 2 4 3 1 0 0 1 1 1 0 0 1 1 0 0 0 0 0 0 0 0
0 0 0 0 0 0 0 0 0 0 0 0 0 0 0 0 1 3 4 4 3 1 0 0 0 0 0 0 0 0 0 0 0 0 0 0 0 0
0 0 0 0 0 0 0 0 0 0 0 0 0 0 0 0 1 2 3 4 3 1 0 0 0 0 0 0 0 0 0 0 0 0 0 0 0 0
0 0 0 0 0 0 0 0 0 0 0 0 0 0 0 0 0 1 1 2 1 0 0 0 0 0 0 0 0 0 0 0 0 0 0 0 0 0
0 0 0 0 0 0 0 0 0 0 0 0 0 0 0 0 0 1 2 3 2 1 1 0 0 0 0 0 0 0 0 0 0 0 0 0 0 0
0 0 0 0 0 0 0 0 0 0 0 0 0 0 0 0 0 1 3 5 5 3 2 2 2 2 2 1 0 0 0 0 0 0 0 0 0 0
0 0 0 0 0 0 0 0 0 0 0 0 0 0 0 0 0 1 3 5 5 4 4 4 5 7 5 2 0 0 0 0 0 0 0 0 0 0
0 0 0 0 0 0 0 0 0 0 0 0 0 0 0 0 0 0 1 2 4 6 6 6 7 8 5 1 0 0 0 0 0 0 0 0 0 0
0 0 0 0 0 0 0 0 0 0 0 0 0 0 0 0 0 0 0 1 3 6 6 6 5 4 2 0 0 0 0 0 0 0 0 0 0 0
0 0 0 0 0 0 0 0 0 0 0 0 0 0 0 0 0 1 0 0 2 4 5 5 4 2 0 0 0 0 0 0 0 0 0 0 0 0
0 0 0 0 0 0 0 0 0 0 0 0 0 0 0 0 0 0 0 0 0 1 3 4 3 1 0 0 0 0 0 0 0 0 0 0 0 0
0 0 0 0 0 0 0 0 0 0 0 0 0 0 0 0 0 0 0 0 0 0 1 2 2 1 0 0 0 0 0 0 0 0 0 0 0 0
0 0 0 0 0 0 0 0 0 0 0 0 0 0 0 0 0 0 0 0 1 0 0 1 3 3 1 0 0 0 0 0 0 0 0 0 0 0
0 0 0 0 0 0 0 0 0 0 0 0 0 0 0 0 1 2 1 1 1 0 0 1 3 4 3 1 0 0 0 0 0 0 0 0 0 0
0 0 0 0 0 0 0 0 0 0 0 0 0 0 0 0 2 3 3 2 2 1 0 1 3 4 3 1 0 0 0 0 0 0 0 0 0 0
0 0 0 0 0 0 0 0 0 0 0 0 0 0 0 0 1 3 3 3 3 1 0 1 2 1 1 1 0 0 0 0 0 0 0 0 0 0
0 0 0 0 0 0 0 0 0 0 0 0 0 0 0 0 1 2 3 4 3 1 0 1 1 0 0 0 0 0 0 0 0 0 0 0 0 0
0 0 0 0 0 0 0 0 0 0 0 0 0 0 0 0 0 1 2 3 3 1 1 1 1 0 0 0 0 0 0 0 0 0 0 0 0 0
0 0 0 0 0 0 0 0 0 0 0 0 0 0 0 0 0 1 1 2 1 1 1 1 1 0 0 0 0 0 0 0 0 0 0 0 0 0
0 0 0 0 0 0 0 0 0 0 0 0 0 0 0 0 0 0 0 0 0 0 0 0 0 0 0 0 0 0 0 0 0 0 0 0 0 0
0 0 0 0 0 0 0 0 0 0 0 0 0 0 0 0 0 0 0 0 0 0 0 0 0 0 0 0 0 0 0 0 0 0 0 0 0 0
0 0 0 0 0 0 0 0 0 0 0 0 0 0 0 0 0 0 0 0 0 0 0 1 1 1 0 0 0 0 0 0 0 0 0 0 0 0
Wind_Speed
10 10 9 9 8 8 8 8 9 10 8 5 3 1 2 3 3 5 6 8 11 15 17 19 20 21 22 22 22 21 21 20 20 20 20 21 21 22
8 9 9 10 9 8 9 9 9 10 10 7 5 4 4 5 4 5 6 6 9 13 16 17 18 19 20 21 22 22 21 21 20 20 20 19 19 19
10 10 10 11 9 9 9 9 9 9 10 9 7 4 5 6 5 5 5 5 6 10 13 15 17 18 19 20 21 21 21 20 20 20 19 19 18 18
11 11 11 10 11 10 9 11 10 9 11 11 8 7 6 6 6 6 4 3 4 6 10 12 14 15 17 18 19 20 20 20 19 19 19 18 18 17
12 12 12 11 11 10 10 11 10 10 10 11 10 7 6 5 5 5 5 3 3 4 7 10 11 13 14 16 17 18 18 18 18 18 18 17 17 16
12 12 12 12 12 12 10 11 11 11 11 11 10 9 7 6 5 5 4 3 3 3 3 4 7 10 12 13 15 16 17 17 17 17 17 16 16 15
12 12 12 12 11 10 10 11 10 10 10 10 10 10 8 6 6 5 5 3 3 3 4 4 5 5 7 10 12 14 15 16 16 16 16 16 15 14
12 12 12 12 14 15 17 17 15 13 12 11 10 10 9 8 6 5 5 4 4 4 4 3 3 4 4 5 9 13 14 15 15 15 15 15 14 14
13 12 11 10 10 12 15 19 19 20 18 15 14 12 10 9 8 8 6 6 4 3 4 3 2 2 1 2 9 12 13 14 14 15 15 15 14 13
13 13 12 12 12 11 12 13 14 15 16 16 15 15 13 10 8 9 7 6 4 3 3 3 3 2 2 3 5 9 11 13 14 14 14 14 14 13
13 12 12 12 8 7 12 14 14 13 13 14 13 12 10 7 6 8 8 6 5 3 2 3 3 3 2 2 3 6 9 11 13 13 14 14 15 14
10 10 10 11 7 5 11 13 14 14 13 12 14 15 15 14 12 12 10 8 6 4 4 4 4 4 3 2 2 3 6 8 11 13 14 15 16 11
9 9 6 6 8 8 11 13 13 11 12 13 12 12 13 12 13 14 12 10 7 5 6 6 5 4 4 4 2 2 4 5 6 7 11 13 10 7
10 9 5 2 5 9 10 11 10 10 11 11 11 11 11 11 11 12 12 12 8 6 7 8 5 6 5 5 4 3 3 4 6 7 7 7 5 5
9 8 8 7 9 11 15 14 11 11 11 11 11 11 11 10 9 9 11 10 9 7 8 8 6 6 6 5 7 6 5 3 5 7 8 7 7 7
10 9 12 15 13 12 9 11 11 11 10 11 11 10 9 9 9 9 9 9 8 6 7 7 6 8 5 6 7 8 8 7 7 7 8 8 7 7
8 9 9 8 8 9 8 8 8 9 11 11 10 10 9 9 9 9 9 9 9 9 7 5 4 3 3 5 8 9 9 8 8 9 8 8 7 8
8 10 9 8 8 8 7 7 8 9 9 10 10 9 9 9 10 9 9 10 10 9 9 7 6 4 3 2 1 8 9 9 9 9 9 8 9 8
9 10 10 9 8 8 7 7 7 7 7 8 9 9 9 9 9 10 10 10 10 9 9 9 9 8 8 6 2 3 8 9 10 9 9 8 9 9
10 10 9 8 8 8 7 7 7 6 7 8 9 9 9 9 10 10 10 11 10 9 9 10 10 10 10 8 7 5 7 10 10 10 9 7 5 8
8 8 8 8 8 7 7 7 7 6 7 7 8 9 8 9 9 10 10 11 10 9 10 10 10 9 5 5 7 7 8 6 5 8 11 10 9 10
7 8 8 8 7 6 6 7 7 7 7 7 7 8 8 8 9 11 10 10 10 10 10 8 10 9 7 8 9 10 9 8 4 6 6 3 7 10
7 7 7 7 7 6 6 7 9 8 7 7 8 8 8 8 8 9 9 9 9 9 9 9 9 8 8 7 8 9 13 12 9 8 6 5 6 7
Wind_Direction
269 261 258 268 265 267 269 269 276 283 283 280 258 271 317 308 306 274 251 231 223 218 216 213 211 210 208 208 209 209 209 209 208 209 210 212 213 215
269 276 275 272 273 269 266 265 263 270 279 285 279 283 306 302 290 284 265 233 227 222 218 215 213 211 208 206 205 205 205 205 205 206 207 208 209 211
268 264 261 268 273 274 267 262 260 261 268 273 273 271 278 286 287 280 270 240 221 219 219 215 213 211 209 207 205 203 202 202 202 204 204 205 206 208
267 266 264 262 259 263 268 267 264 265 267 272 274 271 264 274 273 271 269 256 227 211 216 214 210 209 207 205 203 201 199 199 200 201 202 203 204 206
267 264 262 262 262 262 263 266 265 258 255 262 264 263 262 260 267 261 254 247 235 199 201 205 204 203 203 201 199 197 196 195 197 198 199 200 200 201
266 263 261 259 258 260 260 259 262 266 261 259 261 257 251 248 251 254 246 230 216 195 181 181 185 193 196 194 193 192 192 192 193 194 194 195 195 196
268 262 258 258 266 268 271 269 263 258 260 254 254 254 248 242 245 244 246 232 220 202 176 172 173 183 189 190 189 189 189 190 190 191 191 190 190 189
272 268 264 248 241 238 248 260 269 269 268 267 260 256 256 250 246 248 244 230 223 196 181 170 171 172 179 186 180 181 183 184 184 184 183 182 181 179
273 271 268 265 248 247 236 232 241 246 253 265 270 269 266 254 251 246 237 240 236 185 171 165 160 147 116 130 156 170 174 174 175 175 175 173 173 172
269 268 267 270 266 264 264 255 248 239 232 234 248 259 264 274 263 255 259 247 238 201 181 161 152 132 99 93 133 157 165 166 166 167 167 166 163 162
270 269 269 269 265 244 258 262 261 257 245 237 246 257 277 288 288 266 243 230 224 195 185 154 135 119 106 92 99 135 150 155 155 154 154 153 150 146
274 269 256 252 270 242 256 257 256 255 256 240 226 235 243 242 233 245 250 235 224 196 174 155 142 139 131 102 105 127 131 135 141 145 147 149 155 154
283 279 277 196 223 233 246 257 261 270 264 255 247 235 229 229 226 221 229 239 228 209 172 166 158 161 146 134 120 116 134 140 136 137 145 153 166 170
280 281 290 174 231 242 243 251 255 261 257 253 246 239 231 225 222 221 218 226 232 220 179 177 169 165 153 148 144 133 127 142 146 142 142 138 126 115
274 292 295 270 260 248 237 238 239 239 240 242 241 238 235 231 226 218 218 216 219 209 183 189 181 167 168 161 152 152 145 152 157 150 151 160 160 157
256 261 243 243 246 260 253 222 228 235 235 238 242 243 241 232 222 217 212 201 200 193 184 185 184 178 180 168 160 164 162 159 166 163 158 160 167 176
312 284 274 263 249 242 242 237 231 228 227 233 237 238 236 233 226 216 214 205 202 192 178 167 148 130 155 165 168 170 165 161 165 164 163 163 171 179
275 270 271 268 264 259 254 245 231 228 228 229 229 230 230 229 225 217 211 210 206 196 181 167 153 130 101 34 167 171 169 164 161 168 174 169 171 178
246 258 264 266 262 258 257 252 244 233 229 228 227 226 226 225 224 219 212 210 207 198 184 172 174 174 177 181 191 218 173 160 159 170 183 182 176 172
244 257 263 265 262 258 255 251 246 237 230 228 225 225 224 222 219 219 215 211 205 194 185 181 186 192 194 184 164 174 185 169 168 171 178 178 136 112
263 262 265 265 260 256 253 250 244 235 232 228 225 222 220 220 220 218 217 208 205 195 191 190 190 182 177 148 146 153 164 169 170 174 171 166 159 166
278 272 270 269 267 258 250 245 241 235 231 228 224 220 220 220 219 218 215 209 204 202 195 181 169 168 177 180 168 157 155 155 121 100 94 100 178 184
286 279 276 269 262 255 248 243 240 237 232 227 221 216 215 218 218 220 218 214 207 202 189 175 169 174 184 183 164 156 158 160 161 164 151 54 44 77